Year,Month,Day,Hour,Minute,Value (Times are PST for temperature in C)
2015,07,28,00,00,14.80
2015,07,28,00,01,14.70
2015,07,28,00,02,14.70
2015,07,28,00,03,14.70
2015,07,28,00,04,14.70
2015,07,28,00,05,14.70
2015,07,28,00,06,14.70
2015,07,28,00,07,14.70
2015,07,28,00,08,14.70
2015,07,28,00,09,14.70
2015,07,28,00,10,14.70
2015,07,28,00,11,14.60
2015,07,28,00,12,14.60
2015,07,28,00,13,14.60
2015,07,28,00,14,14.60
2015,07,28,00,15,14.60
2015,07,28,00,16,14.60
2015,07,28,00,17,14.60
2015,07,28,00,18,14.60
2015,07,28,00,19,14.50
2015,07,28,00,20,14.50
2015,07,28,00,21,14.50
2015,07,28,00,22,14.50
2015,07,28,00,23,14.50
2015,07,28,00,24,14.50
2015,07,28,00,25,14.50
2015,07,28,00,26,14.40
2015,07,28,00,27,14.40
2015,07,28,00,28,14.40
2015,07,28,00,29,14.40
2015,07,28,00,30,14.40
2015,07,28,00,31,14.40
2015,07,28,00,32,14.40
2015,07,28,00,33,14.40
2015,07,28,00,34,14.40
2015,07,28,00,35,14.40
2015,07,28,00,36,14.40
2015,07,28,00,37,14.40
2015,07,28,00,38,14.40
2015,07,28,00,39,14.40
2015,07,28,00,40,14.40
2015,07,28,00,41,14.30
2015,07,28,00,42,14.30
2015,07,28,00,43,14.30
2015,07,28,00,44,14.30
2015,07,28,00,45,14.30
2015,07,28,00,46,14.30
2015,07,28,00,47,14.30
2015,07,28,00,48,14.30
2015,07,28,00,49,14.30
2015,07,28,00,50,14.30
2015,07,28,00,51,14.30
2015,07,28,00,52,14.30
2015,07,28,00,53,14.30
2015,07,28,00,54,14.30
2015,07,28,00,55,14.30
2015,07,28,00,56,14.30
2015,07,28,00,57,14.30
2015,07,28,00,58,14.30
2015,07,28,00,59,14.30
2015,07,28,01,00,14.30
2015,07,28,01,01,14.30
2015,07,28,01,02,14.30
2015,07,28,01,03,14.30
2015,07,28,01,04,14.30
2015,07,28,01,05,14.30
2015,07,28,01,06,14.30
2015,07,28,01,07,14.30
2015,07,28,01,08,14.30
2015,07,28,01,09,14.30
2015,07,28,01,10,14.30
2015,07,28,01,11,14.30
2015,07,28,01,12,14.20
2015,07,28,01,13,14.20
2015,07,28,01,14,14.20
2015,07,28,01,15,14.20
2015,07,28,01,16,14.20
2015,07,28,01,17,14.20
2015,07,28,01,18,14.20
2015,07,28,01,19,14.10
2015,07,28,01,20,14.10
2015,07,28,01,21,14.10
2015,07,28,01,22,14.10
2015,07,28,01,23,14.10
2015,07,28,01,24,14.10
2015,07,28,01,25,14.10
2015,07,28,01,26,14.10
2015,07,28,01,27,14.10
2015,07,28,01,28,14.10
2015,07,28,01,29,14.10
2015,07,28,01,30,14.00
2015,07,28,01,31,14.00
2015,07,28,01,32,14.00
2015,07,28,01,33,14.00
2015,07,28,01,34,14.00
2015,07,28,01,35,14.00
2015,07,28,01,36,14.00
2015,07,28,01,37,14.00
2015,07,28,01,38,14.00
2015,07,28,01,39,14.00
2015,07,28,01,40,13.90
2015,07,28,01,41,13.90
2015,07,28,01,42,13.90
2015,07,28,01,43,13.90
2015,07,28,01,44,13.90
2015,07,28,01,45,13.90
2015,07,28,01,46,13.90
2015,07,28,01,47,13.90
2015,07,28,01,48,13.90
2015,07,28,01,49,13.90
2015,07,28,01,50,13.90
2015,07,28,01,51,13.90
2015,07,28,01,52,13.80
2015,07,28,01,53,13.80
2015,07,28,01,54,13.80
2015,07,28,01,55,13.80
2015,07,28,01,56,13.80
2015,07,28,01,57,13.80
2015,07,28,01,58,13.80
2015,07,28,01,59,13.80
2015,07,28,02,00,13.80
2015,07,28,02,01,13.80
2015,07,28,02,02,13.80
2015,07,28,02,03,13.80
2015,07,28,02,04,13.80
2015,07,28,02,05,13.80
2015,07,28,02,06,13.80
2015,07,28,02,07,13.80
2015,07,28,02,08,13.80
2015,07,28,02,09,13.80
2015,07,28,02,10,13.80
2015,07,28,02,11,13.80
2015,07,28,02,12,13.80
2015,07,28,02,13,13.80
2015,07,28,02,14,13.70
2015,07,28,02,15,13.70
2015,07,28,02,16,13.70
2015,07,28,02,17,13.70
2015,07,28,02,18,13.70
2015,07,28,02,19,13.70
2015,07,28,02,20,13.70
2015,07,28,02,21,13.70
2015,07,28,02,22,13.70
2015,07,28,02,23,13.70
2015,07,28,02,24,13.70
2015,07,28,02,25,13.70
2015,07,28,02,26,13.70
2015,07,28,02,27,13.70
2015,07,28,02,28,13.70
2015,07,28,02,29,13.80
2015,07,28,02,30,13.80
2015,07,28,02,31,13.80
2015,07,28,02,32,13.70
2015,07,28,02,33,13.70
2015,07,28,02,34,13.70
2015,07,28,02,35,13.70
2015,07,28,02,36,13.70
2015,07,28,02,37,13.70
2015,07,28,02,38,13.70
2015,07,28,02,39,13.70
2015,07,28,02,40,13.70
2015,07,28,02,41,13.60
2015,07,28,02,42,13.60
2015,07,28,02,43,13.60
2015,07,28,02,44,13.60
2015,07,28,02,45,13.60
2015,07,28,02,46,13.60
2015,07,28,02,47,13.60
2015,07,28,02,48,13.60
2015,07,28,02,49,13.60
2015,07,28,02,50,13.60
2015,07,28,02,51,13.60
2015,07,28,02,52,13.60
2015,07,28,02,53,13.50
2015,07,28,02,54,13.50
2015,07,28,02,55,13.50
2015,07,28,02,56,13.60
2015,07,28,02,57,13.60
2015,07,28,02,58,13.60
2015,07,28,02,59,13.60
2015,07,28,03,00,13.70
2015,07,28,03,01,13.70
2015,07,28,03,02,13.70
2015,07,28,03,03,13.70
2015,07,28,03,04,13.70
2015,07,28,03,05,13.70
2015,07,28,03,06,13.70
2015,07,28,03,07,13.60
2015,07,28,03,08,13.60
2015,07,28,03,09,13.50
2015,07,28,03,10,13.50
2015,07,28,03,11,13.50
2015,07,28,03,12,13.40
2015,07,28,03,13,13.40
2015,07,28,03,14,13.40
2015,07,28,03,15,13.40
2015,07,28,03,16,13.30
2015,07,28,03,17,13.30
2015,07,28,03,18,13.30
2015,07,28,03,19,13.30
2015,07,28,03,20,13.30
2015,07,28,03,21,13.30
2015,07,28,03,22,13.30
2015,07,28,03,23,13.30
2015,07,28,03,24,13.30
2015,07,28,03,25,13.30
2015,07,28,03,26,13.30
2015,07,28,03,27,13.30
2015,07,28,03,28,13.20
2015,07,28,03,29,13.20
2015,07,28,03,30,13.20
2015,07,28,03,31,13.20
2015,07,28,03,32,13.10
2015,07,28,03,33,13.10
2015,07,28,03,34,13.10
2015,07,28,03,35,13.10
2015,07,28,03,36,13.10
2015,07,28,03,37,13.10
2015,07,28,03,38,13.10
2015,07,28,03,39,13.10
2015,07,28,03,40,13.10
2015,07,28,03,41,13.10
2015,07,28,03,42,13.10
2015,07,28,03,43,13.10
2015,07,28,03,44,13.10
2015,07,28,03,45,13.10
2015,07,28,03,46,13.10
2015,07,28,03,47,13.10
2015,07,28,03,48,13.10
2015,07,28,03,49,13.00
2015,07,28,03,50,13.00
2015,07,28,03,51,13.00
2015,07,28,03,52,13.00
2015,07,28,03,53,12.90
2015,07,28,03,54,12.90
2015,07,28,03,55,12.90
2015,07,28,03,56,12.90
2015,07,28,03,57,12.80
2015,07,28,03,58,12.80
2015,07,28,03,59,12.80
2015,07,28,04,00,12.80
2015,07,28,04,01,12.80
2015,07,28,04,02,12.80
2015,07,28,04,03,12.80
2015,07,28,04,04,12.70
2015,07,28,04,05,12.70
2015,07,28,04,06,12.70
2015,07,28,04,07,12.70
2015,07,28,04,08,12.70
2015,07,28,04,09,12.70
2015,07,28,04,10,12.70
2015,07,28,04,11,12.70
2015,07,28,04,12,12.60
2015,07,28,04,13,12.60
2015,07,28,04,14,12.60
2015,07,28,04,15,12.60
2015,07,28,04,16,12.60
2015,07,28,04,17,12.60
2015,07,28,04,18,12.50
2015,07,28,04,19,12.50
2015,07,28,04,20,12.50
2015,07,28,04,21,12.50
2015,07,28,04,22,12.50
2015,07,28,04,23,12.50
2015,07,28,04,24,12.50
2015,07,28,04,25,12.40
2015,07,28,04,26,12.40
2015,07,28,04,27,12.40
2015,07,28,04,28,12.40
2015,07,28,04,29,12.40
2015,07,28,04,30,12.40
2015,07,28,04,31,12.40
2015,07,28,04,32,12.40
2015,07,28,04,33,12.40
2015,07,28,04,34,12.40
2015,07,28,04,35,12.40
2015,07,28,04,36,12.40
2015,07,28,04,37,12.40
2015,07,28,04,38,12.40
2015,07,28,04,39,12.40
2015,07,28,04,40,12.40
2015,07,28,04,41,12.40
2015,07,28,04,42,12.40
2015,07,28,04,43,12.40
2015,07,28,04,44,12.40
2015,07,28,04,45,12.40
2015,07,28,04,46,12.40
2015,07,28,04,47,12.40
2015,07,28,04,48,12.30
2015,07,28,04,49,12.30
2015,07,28,04,50,12.30
2015,07,28,04,51,12.30
2015,07,28,04,52,12.30
2015,07,28,04,53,12.30
2015,07,28,04,54,12.30
2015,07,28,04,55,12.30
2015,07,28,04,56,12.30
2015,07,28,04,57,12.30
2015,07,28,04,58,12.20
2015,07,28,04,59,12.20
2015,07,28,05,00,12.20
2015,07,28,05,01,12.20
2015,07,28,05,02,12.20
2015,07,28,05,03,12.20
2015,07,28,05,04,12.20
2015,07,28,05,05,12.20
2015,07,28,05,06,12.20
2015,07,28,05,07,12.20
2015,07,28,05,08,12.20
2015,07,28,05,09,12.20
2015,07,28,05,10,12.20
2015,07,28,05,11,12.20
2015,07,28,05,12,12.20
2015,07,28,05,13,12.20
2015,07,28,05,14,12.20
2015,07,28,05,15,12.20
2015,07,28,05,16,12.20
2015,07,28,05,17,12.20
2015,07,28,05,18,12.20
2015,07,28,05,19,12.20
2015,07,28,05,20,12.20
2015,07,28,05,21,12.20
2015,07,28,05,22,12.20
2015,07,28,05,23,12.20
2015,07,28,05,24,12.20
2015,07,28,05,25,12.10
2015,07,28,05,26,12.10
2015,07,28,05,27,12.20
2015,07,28,05,28,12.20
2015,07,28,05,29,12.20
2015,07,28,05,30,12.30
2015,07,28,05,31,12.30
2015,07,28,05,32,12.30
2015,07,28,05,33,12.30
2015,07,28,05,34,12.30
2015,07,28,05,35,12.30
2015,07,28,05,36,12.30
2015,07,28,05,37,12.30
2015,07,28,05,38,12.40
2015,07,28,05,39,12.40
2015,07,28,05,40,12.40
2015,07,28,05,41,12.40
2015,07,28,05,42,12.40
2015,07,28,05,43,12.40
2015,07,28,05,44,12.40
2015,07,28,05,45,12.40
2015,07,28,05,46,12.40
2015,07,28,05,47,12.40
2015,07,28,05,48,12.40
2015,07,28,05,49,12.40
2015,07,28,05,50,12.40
2015,07,28,05,51,12.40
2015,07,28,05,52,12.50
2015,07,28,05,53,12.50
2015,07,28,05,54,12.50
2015,07,28,05,55,12.40
2015,07,28,05,56,12.40
2015,07,28,05,57,12.50
2015,07,28,05,58,12.50
2015,07,28,05,59,12.50
2015,07,28,06,00,12.50
2015,07,28,06,01,12.50
2015,07,28,06,02,12.50
2015,07,28,06,03,12.40
2015,07,28,06,04,12.40
2015,07,28,06,05,12.40
2015,07,28,06,06,12.40
2015,07,28,06,07,12.40
2015,07,28,06,08,12.40
2015,07,28,06,09,12.30
2015,07,28,06,10,12.30
2015,07,28,06,11,12.30
2015,07,28,06,12,12.30
2015,07,28,06,13,12.30
2015,07,28,06,14,12.30
2015,07,28,06,15,12.30
2015,07,28,06,16,12.30
2015,07,28,06,17,12.30
2015,07,28,06,18,12.30
2015,07,28,06,19,12.30
2015,07,28,06,20,12.30
2015,07,28,06,21,12.30
2015,07,28,06,22,12.30
2015,07,28,06,23,12.30
2015,07,28,06,24,12.30
2015,07,28,06,25,12.30
2015,07,28,06,26,12.30
2015,07,28,06,27,12.30
2015,07,28,06,28,12.30
2015,07,28,06,29,12.30
2015,07,28,06,30,12.30
2015,07,28,06,31,12.30
2015,07,28,06,32,12.30
2015,07,28,06,33,12.30
2015,07,28,06,34,12.30
2015,07,28,06,35,12.30
2015,07,28,06,36,12.30
2015,07,28,06,37,12.30
2015,07,28,06,38,12.30
2015,07,28,06,39,12.30
2015,07,28,06,40,12.30
2015,07,28,06,41,12.30
2015,07,28,06,42,12.30
2015,07,28,06,43,12.30
2015,07,28,06,44,12.30
2015,07,28,06,45,12.30
2015,07,28,06,46,12.30
2015,07,28,06,47,12.30
2015,07,28,06,48,12.30
2015,07,28,06,49,12.20
2015,07,28,06,50,12.20
2015,07,28,06,51,12.20
2015,07,28,06,52,12.20
2015,07,28,06,53,12.20
2015,07,28,06,54,12.20
2015,07,28,06,55,12.20
2015,07,28,06,56,12.20
2015,07,28,06,57,12.20
2015,07,28,06,58,12.30
2015,07,28,06,59,12.30
2015,07,28,07,00,12.30
2015,07,28,07,01,12.30
2015,07,28,07,02,12.30
2015,07,28,07,03,12.30
2015,07,28,07,04,12.30
2015,07,28,07,05,12.30
2015,07,28,07,06,12.30
2015,07,28,07,07,12.30
2015,07,28,07,08,12.30
2015,07,28,07,09,12.20
2015,07,28,07,10,12.20
2015,07,28,07,11,12.20
2015,07,28,07,12,12.20
2015,07,28,07,13,12.20
2015,07,28,07,14,12.20
2015,07,28,07,15,12.20
2015,07,28,07,16,12.20
2015,07,28,07,17,12.20
2015,07,28,07,18,12.20
2015,07,28,07,19,12.10
2015,07,28,07,20,12.10
2015,07,28,07,21,12.10
2015,07,28,07,22,12.10
2015,07,28,07,23,12.10
2015,07,28,07,24,12.10
2015,07,28,07,25,12.10
2015,07,28,07,26,12.10
2015,07,28,07,27,12.10
2015,07,28,07,28,12.10
2015,07,28,07,29,12.10
2015,07,28,07,30,12.10
2015,07,28,07,31,12.10
2015,07,28,07,32,12.10
2015,07,28,07,33,12.10
2015,07,28,07,34,12.20
2015,07,28,07,35,12.20
2015,07,28,07,36,12.20
2015,07,28,07,37,12.20
2015,07,28,07,38,12.20
2015,07,28,07,39,12.20
2015,07,28,07,40,12.20
2015,07,28,07,41,12.20
2015,07,28,07,42,12.20
2015,07,28,07,43,12.20
2015,07,28,07,44,12.20
2015,07,28,07,45,12.20
2015,07,28,07,46,12.20
2015,07,28,07,47,12.20
2015,07,28,07,48,12.20
2015,07,28,07,49,12.20
2015,07,28,07,50,12.20
2015,07,28,07,51,12.20
2015,07,28,07,52,12.30
2015,07,28,07,53,12.30
2015,07,28,07,54,12.30
2015,07,28,07,55,12.30
2015,07,28,07,56,12.30
2015,07,28,07,57,12.30
2015,07,28,07,58,12.30
2015,07,28,07,59,12.30
2015,07,28,08,00,12.30
2015,07,28,08,01,12.40
2015,07,28,08,02,12.40
2015,07,28,08,03,12.40
2015,07,28,08,04,12.40
2015,07,28,08,05,12.40
2015,07,28,08,06,12.40
2015,07,28,08,07,12.50
2015,07,28,08,08,12.50
2015,07,28,08,09,12.50
2015,07,28,08,10,12.50
2015,07,28,08,11,12.50
2015,07,28,08,12,12.50
2015,07,28,08,13,12.60
2015,07,28,08,14,12.60
2015,07,28,08,15,12.60
2015,07,28,08,16,12.60
2015,07,28,08,17,12.60
2015,07,28,08,18,12.60
2015,07,28,08,19,12.60
2015,07,28,08,20,12.60
2015,07,28,08,21,12.60
2015,07,28,08,22,12.60
2015,07,28,08,23,12.60
2015,07,28,08,24,12.60
2015,07,28,08,25,12.70
2015,07,28,08,26,12.70
2015,07,28,08,27,12.70
2015,07,28,08,28,12.70
2015,07,28,08,29,12.70
2015,07,28,08,30,12.80
2015,07,28,08,31,12.80
2015,07,28,08,32,12.80
2015,07,28,08,33,12.80
2015,07,28,08,34,12.90
2015,07,28,08,35,12.90
2015,07,28,08,36,12.90
2015,07,28,08,37,13.00
2015,07,28,08,38,13.00
2015,07,28,08,39,13.10
2015,07,28,08,40,13.10
2015,07,28,08,41,13.10
2015,07,28,08,42,13.10
2015,07,28,08,43,13.20
2015,07,28,08,44,13.20
2015,07,28,08,45,13.20
2015,07,28,08,46,13.30
2015,07,28,08,47,13.30
2015,07,28,08,48,13.30
2015,07,28,08,49,13.40
2015,07,28,08,50,13.40
2015,07,28,08,51,13.40
2015,07,28,08,52,13.50
2015,07,28,08,53,13.50
2015,07,28,08,54,13.50
2015,07,28,08,55,13.60
2015,07,28,08,56,13.60
2015,07,28,08,57,13.60
2015,07,28,08,58,13.70
2015,07,28,08,59,13.70
2015,07,28,09,00,13.70
2015,07,28,09,01,13.80
2015,07,28,09,02,13.80
2015,07,28,09,03,13.80
2015,07,28,09,04,13.90
2015,07,28,09,05,13.90
2015,07,28,09,06,14.00
2015,07,28,09,07,14.10
2015,07,28,09,08,14.10
2015,07,28,09,09,14.20
2015,07,28,09,10,14.30
2015,07,28,09,11,14.40
2015,07,28,09,12,14.40
2015,07,28,09,13,14.40
2015,07,28,09,14,14.50
2015,07,28,09,15,14.60
2015,07,28,09,16,14.60
2015,07,28,09,17,14.70
2015,07,28,09,18,14.70
2015,07,28,09,19,14.80
2015,07,28,09,20,14.80
2015,07,28,09,21,14.90
2015,07,28,09,22,15.00
2015,07,28,09,23,15.00
2015,07,28,09,24,15.00
2015,07,28,09,25,15.00
2015,07,28,09,26,15.10
2015,07,28,09,27,15.20
2015,07,28,09,28,15.30
2015,07,28,09,29,15.50
2015,07,28,09,30,15.60
2015,07,28,09,31,15.70
2015,07,28,09,32,15.80
2015,07,28,09,33,15.90
2015,07,28,09,34,16.00
2015,07,28,09,35,16.10
2015,07,28,09,36,16.30
2015,07,28,09,37,16.40
2015,07,28,09,38,16.50
2015,07,28,09,39,16.60
2015,07,28,09,40,16.70
2015,07,28,09,41,16.80
2015,07,28,09,42,16.90
2015,07,28,09,43,17.10
2015,07,28,09,44,17.10
2015,07,28,09,45,17.20
2015,07,28,09,46,17.30
2015,07,28,09,47,17.40
2015,07,28,09,48,17.50
2015,07,28,09,49,17.60
2015,07,28,09,50,17.70
2015,07,28,09,51,17.80
2015,07,28,09,52,17.80
2015,07,28,09,53,17.90
2015,07,28,09,54,18.00
2015,07,28,09,55,18.10
2015,07,28,09,56,18.10
2015,07,28,09,57,18.20
2015,07,28,09,58,18.30
2015,07,28,09,59,18.40
2015,07,28,10,00,18.50
2015,07,28,10,01,18.50
2015,07,28,10,02,18.60
2015,07,28,10,03,18.70
2015,07,28,10,04,18.80
2015,07,28,10,05,18.80
2015,07,28,10,06,18.90
2015,07,28,10,07,18.90
2015,07,28,10,08,18.90
2015,07,28,10,09,18.90
2015,07,28,10,10,18.90
2015,07,28,10,11,19.00
2015,07,28,10,12,19.00
2015,07,28,10,13,19.00
2015,07,28,10,14,19.00
2015,07,28,10,15,19.00
2015,07,28,10,16,19.10
2015,07,28,10,17,19.10
2015,07,28,10,18,19.10
2015,07,28,10,19,19.10
2015,07,28,10,20,19.00
2015,07,28,10,21,19.00
2015,07,28,10,22,19.00
2015,07,28,10,23,19.00
2015,07,28,10,24,19.00
2015,07,28,10,25,19.00
2015,07,28,10,26,19.00
2015,07,28,10,27,19.00
2015,07,28,10,28,19.00
2015,07,28,10,29,19.00
2015,07,28,10,30,19.00
2015,07,28,10,31,19.10
2015,07,28,10,32,19.10
2015,07,28,10,33,19.10
2015,07,28,10,34,19.10
2015,07,28,10,35,19.10
2015,07,28,10,36,19.10
2015,07,28,10,37,19.10
2015,07,28,10,38,19.20
2015,07,28,10,39,19.20
2015,07,28,10,40,19.20
2015,07,28,10,41,19.20
2015,07,28,10,42,19.30
2015,07,28,10,43,19.30
2015,07,28,10,44,19.40
2015,07,28,10,45,19.40
2015,07,28,10,46,19.50
2015,07,28,10,47,19.50
2015,07,28,10,48,19.60
2015,07,28,10,49,19.70
2015,07,28,10,50,19.70
2015,07,28,10,51,19.80
2015,07,28,10,52,19.80
2015,07,28,10,53,19.90
2015,07,28,10,54,19.90
2015,07,28,10,55,20.00
2015,07,28,10,56,20.00
2015,07,28,10,57,20.10
2015,07,28,10,58,20.10
2015,07,28,10,59,20.10
2015,07,28,11,00,20.20
2015,07,28,11,01,20.20
2015,07,28,11,02,20.30
2015,07,28,11,03,20.30
2015,07,28,11,04,20.40
2015,07,28,11,05,20.40
2015,07,28,11,06,20.50
2015,07,28,11,07,20.50
2015,07,28,11,08,20.60
2015,07,28,11,09,20.60
2015,07,28,11,10,20.60
2015,07,28,11,11,20.70
2015,07,28,11,12,20.70
2015,07,28,11,13,20.70
2015,07,28,11,14,20.80
2015,07,28,11,15,20.80
2015,07,28,11,16,20.80
2015,07,28,11,17,20.90
2015,07,28,11,18,20.90
2015,07,28,11,19,20.90
2015,07,28,11,20,20.90
2015,07,28,11,21,20.90
2015,07,28,11,22,21.00
2015,07,28,11,23,21.00
2015,07,28,11,24,21.00
2015,07,28,11,25,21.10
2015,07,28,11,26,21.10
2015,07,28,11,27,21.10
2015,07,28,11,28,21.10
2015,07,28,11,29,21.10
2015,07,28,11,30,21.10
2015,07,28,11,31,21.10
2015,07,28,11,32,21.10
2015,07,28,11,33,21.10
2015,07,28,11,34,21.20
2015,07,28,11,35,21.20
2015,07,28,11,36,21.20
2015,07,28,11,37,21.30
2015,07,28,11,38,21.30
2015,07,28,11,39,21.40
2015,07,28,11,40,21.50
2015,07,28,11,41,21.60
2015,07,28,11,42,21.70
2015,07,28,11,43,21.80
2015,07,28,11,44,21.80
2015,07,28,11,45,21.90
2015,07,28,11,46,22.00
2015,07,28,11,47,22.10
2015,07,28,11,48,22.10
2015,07,28,11,49,22.20
2015,07,28,11,50,22.20
2015,07,28,11,51,22.30
2015,07,28,11,52,22.30
2015,07,28,11,53,22.30
2015,07,28,11,54,22.30
2015,07,28,11,55,22.40
2015,07,28,11,56,22.50
2015,07,28,11,57,22.50
2015,07,28,11,58,22.60
2015,07,28,11,59,22.70
2015,07,28,12,00,22.80
2015,07,28,12,01,22.90
2015,07,28,12,02,23.00
2015,07,28,12,03,23.10
2015,07,28,12,04,23.10
2015,07,28,12,05,23.20
2015,07,28,12,06,23.30
2015,07,28,12,07,23.30
2015,07,28,12,08,23.40
2015,07,28,12,09,23.50
2015,07,28,12,10,23.50
2015,07,28,12,11,23.60
2015,07,28,12,12,23.60
2015,07,28,12,13,23.70
2015,07,28,12,14,23.70
2015,07,28,12,15,23.80
2015,07,28,12,16,23.80
2015,07,28,12,17,23.80
2015,07,28,12,18,23.90
2015,07,28,12,19,23.90
2015,07,28,12,20,24.00
2015,07,28,12,21,24.00
2015,07,28,12,22,24.10
2015,07,28,12,23,24.10
2015,07,28,12,24,24.10
2015,07,28,12,25,24.10
2015,07,28,12,26,24.10
2015,07,28,12,27,24.10
2015,07,28,12,28,24.10
2015,07,28,12,29,24.10
2015,07,28,12,30,24.10
2015,07,28,12,31,24.10
2015,07,28,12,32,24.20
2015,07,28,12,33,24.20
2015,07,28,12,34,24.20
2015,07,28,12,35,24.20
2015,07,28,12,36,24.30
2015,07,28,12,37,24.30
2015,07,28,12,38,24.30
2015,07,28,12,39,24.30
2015,07,28,12,40,24.30
2015,07,28,12,41,24.30
2015,07,28,12,42,24.30
2015,07,28,12,43,24.30
2015,07,28,12,44,24.30
2015,07,28,12,45,24.30
2015,07,28,12,46,24.20
2015,07,28,12,47,24.20
2015,07,28,12,48,24.20
2015,07,28,12,49,24.10
2015,07,28,12,50,24.10
2015,07,28,12,51,24.10
2015,07,28,12,52,24.10
2015,07,28,12,53,24.10
2015,07,28,12,54,24.10
2015,07,28,12,55,24.10
2015,07,28,12,56,24.10
2015,07,28,12,57,24.10
2015,07,28,12,58,24.10
2015,07,28,12,59,24.10
2015,07,28,13,00,24.10
2015,07,28,13,01,24.10
2015,07,28,13,02,24.10
2015,07,28,13,03,24.10
2015,07,28,13,04,24.10
2015,07,28,13,05,24.10
2015,07,28,13,06,24.10
2015,07,28,13,07,24.10
2015,07,28,13,08,24.10
2015,07,28,13,09,24.10
2015,07,28,13,10,24.00
2015,07,28,13,11,24.00
2015,07,28,13,12,24.00
2015,07,28,13,13,24.00
2015,07,28,13,14,24.00
2015,07,28,13,15,23.90
2015,07,28,13,16,23.90
2015,07,28,13,17,24.00
2015,07,28,13,18,24.00
2015,07,28,13,19,23.90
2015,07,28,13,20,23.90
2015,07,28,13,21,23.90
2015,07,28,13,22,24.00
2015,07,28,13,23,24.00
2015,07,28,13,24,24.00
2015,07,28,13,25,24.00
2015,07,28,13,26,24.00
2015,07,28,13,27,23.90
2015,07,28,13,28,23.90
2015,07,28,13,29,23.90
2015,07,28,13,30,23.90
2015,07,28,13,31,23.90
2015,07,28,13,32,23.90
2015,07,28,13,33,23.90
2015,07,28,13,34,23.90
2015,07,28,13,35,23.90
2015,07,28,13,36,23.80
2015,07,28,13,37,23.80
2015,07,28,13,38,23.80
2015,07,28,13,39,23.80
2015,07,28,13,40,23.80
2015,07,28,13,41,23.80
2015,07,28,13,42,23.80
2015,07,28,13,43,23.80
2015,07,28,13,44,23.90
2015,07,28,13,45,23.90
2015,07,28,13,46,24.00
2015,07,28,13,47,24.10
2015,07,28,13,48,24.20
2015,07,28,13,49,24.20
2015,07,28,13,50,24.20
2015,07,28,13,51,24.30
2015,07,28,13,52,24.30
2015,07,28,13,53,24.30
2015,07,28,13,54,24.40
2015,07,28,13,55,24.40
2015,07,28,13,56,24.50
2015,07,28,13,57,24.60
2015,07,28,13,58,24.60
2015,07,28,13,59,24.60
2015,07,28,14,00,24.70
2015,07,28,14,01,24.70
2015,07,28,14,02,24.70
2015,07,28,14,03,24.80
2015,07,28,14,04,24.80
2015,07,28,14,05,24.80
2015,07,28,14,06,24.80
2015,07,28,14,07,24.90
2015,07,28,14,08,24.90
2015,07,28,14,09,24.90
2015,07,28,14,10,25.00
2015,07,28,14,11,24.90
2015,07,28,14,12,24.90
2015,07,28,14,13,24.90
2015,07,28,14,14,24.90
2015,07,28,14,15,24.90
2015,07,28,14,16,24.90
2015,07,28,14,17,24.90
2015,07,28,14,18,24.90
2015,07,28,14,19,24.90
2015,07,28,14,20,25.00
2015,07,28,14,21,25.10
2015,07,28,14,22,25.20
2015,07,28,14,23,25.20
2015,07,28,14,24,25.30
2015,07,28,14,25,25.40
2015,07,28,14,26,25.40
2015,07,28,14,27,25.50
2015,07,28,14,28,25.60
2015,07,28,14,29,25.60
2015,07,28,14,30,25.70
2015,07,28,14,31,25.80
2015,07,28,14,32,25.80
2015,07,28,14,33,25.90
2015,07,28,14,34,25.90
2015,07,28,14,35,25.90
2015,07,28,14,36,25.90
2015,07,28,14,37,25.90
2015,07,28,14,38,25.90
2015,07,28,14,39,25.90
2015,07,28,14,40,25.80
2015,07,28,14,41,25.80
2015,07,28,14,42,25.80
2015,07,28,14,43,25.80
2015,07,28,14,44,25.80
2015,07,28,14,45,25.90
2015,07,28,14,46,25.90
2015,07,28,14,47,25.90
2015,07,28,14,48,25.90
2015,07,28,14,49,25.90
2015,07,28,14,50,25.80
2015,07,28,14,51,25.80
2015,07,28,14,52,25.70
2015,07,28,14,53,25.70
2015,07,28,14,54,25.60
2015,07,28,14,55,25.70
2015,07,28,14,56,25.70
2015,07,28,14,57,25.80
2015,07,28,14,58,25.90
2015,07,28,14,59,25.90
2015,07,28,15,00,25.90
2015,07,28,15,01,25.90
2015,07,28,15,02,26.00
2015,07,28,15,03,26.20
2015,07,28,15,04,26.30
2015,07,28,15,05,26.40
2015,07,28,15,06,26.50
2015,07,28,15,07,26.50
2015,07,28,15,08,26.50
2015,07,28,15,09,26.60
2015,07,28,15,10,26.70
2015,07,28,15,11,26.80
2015,07,28,15,12,26.80
2015,07,28,15,13,26.90
2015,07,28,15,14,27.00
2015,07,28,15,15,27.10
2015,07,28,15,16,27.00
2015,07,28,15,17,27.00
2015,07,28,15,18,27.00
2015,07,28,15,19,27.00
2015,07,28,15,20,27.00
2015,07,28,15,21,27.00
2015,07,28,15,22,27.10
2015,07,28,15,23,27.20
2015,07,28,15,24,27.30
2015,07,28,15,25,27.40
2015,07,28,15,26,27.40
2015,07,28,15,27,27.50
2015,07,28,15,28,27.50
2015,07,28,15,29,27.50
2015,07,28,15,30,27.40
2015,07,28,15,31,27.50
2015,07,28,15,32,27.50
2015,07,28,15,33,27.60
2015,07,28,15,34,27.60
2015,07,28,15,35,27.60
2015,07,28,15,36,27.60
2015,07,28,15,37,27.60
2015,07,28,15,38,27.60
2015,07,28,15,39,27.60
2015,07,28,15,40,27.50
2015,07,28,15,41,27.50
2015,07,28,15,42,27.50
2015,07,28,15,43,27.60
2015,07,28,15,44,27.50
2015,07,28,15,45,27.50
2015,07,28,15,46,27.40
2015,07,28,15,47,27.40
2015,07,28,15,48,27.30
2015,07,28,15,49,27.30
2015,07,28,15,50,27.30
2015,07,28,15,51,27.20
2015,07,28,15,52,27.20
2015,07,28,15,53,27.20
2015,07,28,15,54,27.20
2015,07,28,15,55,27.20
2015,07,28,15,56,27.20
2015,07,28,15,57,27.30
2015,07,28,15,58,27.30
2015,07,28,15,59,27.40
2015,07,28,16,00,27.40
2015,07,28,16,01,27.50
2015,07,28,16,02,27.60
2015,07,28,16,03,27.80
2015,07,28,16,04,27.90
2015,07,28,16,05,27.90
2015,07,28,16,06,28.00
2015,07,28,16,07,28.00
2015,07,28,16,08,28.00
2015,07,28,16,09,28.00
2015,07,28,16,10,28.00
2015,07,28,16,11,28.00
2015,07,28,16,12,28.00
2015,07,28,16,13,28.10
2015,07,28,16,14,28.20
2015,07,28,16,15,28.20
2015,07,28,16,16,28.20
2015,07,28,16,17,28.20
2015,07,28,16,18,28.20
2015,07,28,16,19,28.20
2015,07,28,16,20,28.20
2015,07,28,16,21,28.20
2015,07,28,16,22,28.20
2015,07,28,16,23,28.10
2015,07,28,16,24,28.00
2015,07,28,16,25,28.00
2015,07,28,16,26,28.00
2015,07,28,16,27,28.10
2015,07,28,16,28,28.10
2015,07,28,16,29,28.20
2015,07,28,16,30,28.30
2015,07,28,16,31,28.20
2015,07,28,16,32,28.20
2015,07,28,16,33,28.20
2015,07,28,16,34,28.20
2015,07,28,16,35,28.10
2015,07,28,16,36,28.10
2015,07,28,16,37,28.10
2015,07,28,16,38,28.20
2015,07,28,16,39,28.20
2015,07,28,16,40,28.30
2015,07,28,16,41,28.30
2015,07,28,16,42,28.30
2015,07,28,16,43,28.40
2015,07,28,16,44,28.40
2015,07,28,16,45,28.50
2015,07,28,16,46,28.50
2015,07,28,16,47,28.50
2015,07,28,16,48,28.40
2015,07,28,16,49,28.40
2015,07,28,16,50,28.30
2015,07,28,16,51,28.30
2015,07,28,16,52,28.20
2015,07,28,16,53,28.10
2015,07,28,16,54,28.00
2015,07,28,16,55,27.80
2015,07,28,16,56,27.70
2015,07,28,16,57,27.70
2015,07,28,16,58,27.60
2015,07,28,16,59,27.50
2015,07,28,17,00,27.40
2015,07,28,17,01,27.30
2015,07,28,17,02,27.20
2015,07,28,17,03,27.20
2015,07,28,17,04,27.10
2015,07,28,17,05,27.10
2015,07,28,17,06,27.00
2015,07,28,17,07,26.90
2015,07,28,17,08,26.80
2015,07,28,17,09,26.80
2015,07,28,17,10,26.70
2015,07,28,17,11,26.70
2015,07,28,17,12,26.60
2015,07,28,17,13,26.60
2015,07,28,17,14,26.60
2015,07,28,17,15,26.50
2015,07,28,17,16,26.50
2015,07,28,17,17,26.50
2015,07,28,17,18,26.50
2015,07,28,17,19,26.40